Time,TemperatureF,DewpointF,PressureIn,WindDirection,WindDirectionDegrees,WindSpeedMPH,WindSpeedGustMPH,Humidity,HourlyPrecipIn,Conditions,Clouds,dailyrainin,SoftwareType,DateUTC
2013-02-03 00:00:00,24.0,20.7,30.06,NW,313,0.0,0.0,87,0.00,,---,0.00,VWS V14.00,2013-02-03 05:00:00,
2013-02-03 00:03:00,24.0,20.7,30.06,NW,313,0.0,0.0,87,0.00,,---,0.00,VWS V14.00,2013-02-03 05:03:00,
2013-02-03 00:08:00,24.1,20.8,30.06,NW,313,0.0,0.0,87,0.00,,---,0.00,VWS V14.00,2013-02-03 05:08:00,
2013-02-03 00:13:00,24.1,20.8,30.06,NW,313,0.0,0.0,87,0.00,,---,0.00,VWS V14.00,2013-02-03 05:13:00,
2013-02-03 00:19:00,24.1,20.8,30.06,NW,313,0.0,0.0,87,0.00,,---,0.00,VWS V14.00,2013-02-03 05:19:00,
2013-02-03 00:24:00,24.1,20.8,30.05,NW,313,0.0,0.0,87,0.00,,---,0.00,VWS V14.00,2013-02-03 05:24:00,
2013-02-03 00:29:00,24.1,20.5,30.05,NW,313,0.0,0.0,86,0.00,,---,0.00,VWS V14.00,2013-02-03 05:29:00,
2013-02-03 00:34:00,24.1,20.8,30.05,NW,313,0.0,0.0,87,0.00,,---,0.00,VWS V14.00,2013-02-03 05:34:00,
2013-02-03 00:39:00,24.0,20.7,30.05,NW,313,0.0,0.0,87,0.00,,---,0.00,VWS V14.00,2013-02-03 05:39:00,
2013-02-03 00:44:00,24.0,20.7,30.04,NW,313,0.0,0.0,87,0.00,,---,0.00,VWS V14.00,2013-02-03 05:44:00,
2013-02-03 00:49:00,24.0,20.7,30.04,NW,313,0.0,0.0,87,0.00,,---,0.00,VWS V14.00,2013-02-03 05:49:00,
2013-02-03 00:54:00,24.0,20.7,30.04,NW,313,0.0,0.0,87,0.00,,---,0.00,VWS V14.00,2013-02-03 05:54:00,
2013-02-03 00:59:00,24.0,20.7,30.04,NW,313,0.0,0.0,87,0.00,,---,0.00,VWS V14.00,2013-02-03 05:59:00,
2013-02-03 01:04:00,24.0,20.7,30.03,NW,313,0.0,0.0,87,0.00,,---,0.00,VWS V14.00,2013-02-03 06:04:00,
2013-02-03 01:09:00,24.0,20.7,30.03,NW,313,0.0,0.0,87,0.00,,---,0.00,VWS V14.00,2013-02-03 06:09:00,
2013-02-03 01:14:00,24.0,20.7,30.03,NW,313,0.0,0.0,87,0.00,,---,0.00,VWS V14.00,2013-02-03 06:14:00,
2013-02-03 01:19:00,24.0,20.7,30.03,NW,313,0.0,0.0,87,0.00,,---,0.00,VWS V14.00,2013-02-03 06:19:00,
2013-02-03 01:24:00,24.0,20.7,30.03,NW,313,0.0,0.0,87,0.00,,---,0.00,VWS V14.00,2013-02-03 06:24:00,
2013-02-03 01:29:00,24.0,20.7,30.03,NW,313,0.0,0.0,87,0.00,,---,0.00,VWS V14.00,2013-02-03 06:29:00,
2013-02-03 01:34:00,24.0,20.7,30.02,NW,313,0.0,0.0,87,0.00,,---,0.00,VWS V14.00,2013-02-03 06:34:00,
2013-02-03 01:39:00,24.0,20.7,30.02,NW,313,0.0,0.0,87,0.00,,---,0.00,VWS V14.00,2013-02-03 06:39:00,
2013-02-03 01:44:00,24.0,20.7,30.02,NW,313,0.0,0.0,87,0.00,,---,0.00,VWS V14.00,2013-02-03 06:44:00,
2013-02-03 01:49:00,24.0,20.7,30.02,NW,313,0.0,0.0,87,0.00,,---,0.00,VWS V14.00,2013-02-03 06:49:00,
2013-02-03 01:54:00,24.0,20.7,30.02,NW,313,0.0,0.0,87,0.00,,---,0.00,VWS V14.00,2013-02-03 06:54:00,
2013-02-03 01:59:00,24.0,20.7,30.02,NW,313,0.0,0.0,87,0.00,,---,0.00,VWS V14.00,2013-02-03 06:59:00,
2013-02-03 02:04:00,24.0,20.7,30.02,NW,313,0.0,0.0,87,0.00,,---,0.00,VWS V14.00,2013-02-03 07:04:00,
2013-02-03 02:09:00,24.0,20.7,30.02,NW,313,0.0,0.0,87,0.00,,---,0.00,VWS V14.00,2013-02-03 07:09:00,
2013-02-03 02:14:00,24.1,20.8,30.01,NW,313,0.0,0.0,87,0.00,,---,0.00,VWS V14.00,2013-02-03 07:14:00,
2013-02-03 02:19:00,24.0,20.7,30.01,NW,313,0.0,0.0,87,0.00,,---,0.00,VWS V14.00,2013-02-03 07:19:00,
2013-02-03 02:24:00,24.0,20.7,30.01,NW,313,0.0,0.0,87,0.00,,---,0.00,VWS V14.00,2013-02-03 07:24:00,
2013-02-03 02:29:00,24.0,20.7,30.01,NW,313,0.0,0.0,87,0.00,,---,0.00,VWS V14.00,2013-02-03 07:29:00,
2013-02-03 02:34:00,24.0,20.7,30.01,NW,313,0.0,0.0,87,0.00,,---,0.00,VWS V14.00,2013-02-03 07:34:00,
2013-02-03 02:39:00,23.9,20.6,30.01,NW,313,0.0,0.0,87,0.00,,---,0.00,VWS V14.00,2013-02-03 07:39:00,
2013-02-03 02:44:00,23.9,20.6,30.01,NW,313,0.0,0.0,87,0.00,,---,0.00,VWS V14.00,2013-02-03 07:44:00,
2013-02-03 02:49:00,23.8,20.5,30.00,NW,313,0.0,0.0,87,0.00,,---,0.00,VWS V14.00,2013-02-03 07:49:00,
2013-02-03 02:54:00,23.7,20.4,30.00,NW,313,0.0,0.0,87,0.00,,---,0.00,VWS V14.00,2013-02-03 07:54:00,
2013-02-03 02:59:00,23.6,20.3,30.00,NW,313,0.0,0.0,87,0.00,,---,0.00,VWS V14.00,2013-02-03 07:59:00,
2013-02-03 03:04:00,23.5,20.2,29.99,NW,313,0.0,0.0,87,0.00,,---,0.00,VWS V14.00,2013-02-03 08:04:00,
2013-02-03 03:09:00,23.4,20.1,29.99,NW,313,0.0,0.0,87,0.00,,---,0.00,VWS V14.00,2013-02-03 08:09:00,
2013-02-03 03:14:00,23.4,20.4,29.99,NW,313,0.0,0.0,88,0.00,,---,0.00,VWS V14.00,2013-02-03 08:14:00,
2013-02-03 03:19:00,23.4,20.1,29.98,NW,313,0.0,0.0,87,0.00,,---,0.00,VWS V14.00,2013-02-03 08:19:00,
2013-02-03 03:24:00,23.3,20.3,29.98,NW,313,0.0,0.0,88,0.00,,---,0.00,VWS V14.00,2013-02-03 08:24:00,
2013-02-03 03:29:00,23.3,20.3,29.98,NW,313,0.0,0.0,88,0.00,,---,0.00,VWS V14.00,2013-02-03 08:29:00,
2013-02-03 03:34:00,23.3,20.3,29.98,NW,314,0.0,2.0,88,0.00,,---,0.00,VWS V14.00,2013-02-03 08:34:00,
2013-02-03 03:39:00,23.3,20.3,29.97,NW,314,0.0,2.0,88,0.00,,---,0.00,VWS V14.00,2013-02-03 08:39:00,
2013-02-03 03:44:00,23.2,20.2,29.97,NW,314,0.0,2.0,88,0.00,,---,0.00,VWS V14.00,2013-02-03 08:44:00,
2013-02-03 03:49:00,23.2,20.2,29.98,NW,314,0.0,2.0,88,0.00,,---,0.00,VWS V14.00,2013-02-03 08:49:00,
2013-02-03 03:54:00,23.1,20.1,29.97,NW,314,0.0,2.0,88,0.00,,---,0.00,VWS V14.00,2013-02-03 08:54:00,
2013-02-03 03:59:00,23.0,20.0,29.97,NW,314,0.0,0.0,88,0.00,,---,0.00,VWS V14.00,2013-02-03 08:59:00,
2013-02-03 04:04:00,22.9,19.9,29.97,NW,314,0.0,0.0,88,0.00,,---,0.00,VWS V14.00,2013-02-03 09:04:00,
2013-02-03 04:09:00,22.7,19.7,29.97,NW,314,0.0,0.0,88,0.00,,---,0.00,VWS V14.00,2013-02-03 09:09:00,
2013-02-03 04:14:00,22.5,19.2,29.97,NW,314,0.0,0.0,87,0.00,,---,0.00,VWS V14.00,2013-02-03 09:14:00,
2013-02-03 04:19:00,22.4,19.1,29.97,NW,314,0.0,0.0,87,0.00,,---,0.00,VWS V14.00,2013-02-03 09:19:00,
2013-02-03 04:24:00,22.2,18.9,29.97,NW,314,0.0,0.0,87,0.00,,---,0.00,VWS V14.00,2013-02-03 09:24:00,
2013-02-03 04:29:00,22.0,18.7,29.96,NW,314,0.0,0.0,87,0.00,,---,0.00,VWS V14.00,2013-02-03 09:29:00,
2013-02-03 04:34:00,21.9,18.6,29.96,NW,314,0.0,0.0,87,0.00,,---,0.00,VWS V14.00,2013-02-03 09:34:00,
2013-02-03 04:39:00,21.7,18.7,29.96,NW,314,0.0,0.0,88,0.00,,---,0.00,VWS V14.00,2013-02-03 09:39:00,
2013-02-03 04:44:00,21.6,18.3,29.96,NW,314,0.0,0.0,87,0.00,,---,0.00,VWS V14.00,2013-02-03 09:44:00,
2013-02-03 04:49:00,21.4,18.1,29.96,NW,314,0.0,0.0,87,0.00,,---,0.00,VWS V14.00,2013-02-03 09:49:00,
2013-02-03 04:54:00,21.2,18.2,29.95,NW,314,0.0,0.0,88,0.00,,---,0.00,VWS V14.00,2013-02-03 09:54:00,
2013-02-03 04:59:00,21.1,18.1,29.95,NW,314,0.0,0.0,88,0.00,,---,0.00,VWS V14.00,2013-02-03 09:59:00,
2013-02-03 05:04:00,21.0,18.0,29.95,NW,314,0.0,0.0,88,0.00,,---,0.00,VWS V14.00,2013-02-03 10:04:00,
2013-02-03 05:09:00,20.9,17.9,29.95,NW,314,0.0,0.0,88,0.00,,---,0.00,VWS V14.00,2013-02-03 10:09:00,
2013-02-03 05:15:00,20.8,17.8,29.95,NW,314,0.0,0.0,88,0.00,,---,0.00,VWS V14.00,2013-02-03 10:15:00,
2013-02-03 05:20:00,20.7,17.7,29.95,NW,314,0.0,0.0,88,0.00,,---,0.00,VWS V14.00,2013-02-03 10:20:00,
2013-02-03 05:25:00,20.5,17.5,29.95,NW,314,0.0,0.0,88,0.00,,---,0.00,VWS V14.00,2013-02-03 10:25:00,
2013-02-03 05:30:00,20.4,17.4,29.95,NW,314,0.0,0.0,88,0.00,,---,0.00,VWS V14.00,2013-02-03 10:30:00,
2013-02-03 05:35:00,20.3,17.6,29.95,NW,314,0.0,0.0,89,0.00,,---,0.00,VWS V14.00,2013-02-03 10:35:00,
2013-02-03 05:40:00,20.2,17.2,29.95,NW,314,0.0,0.0,88,0.00,,---,0.00,VWS V14.00,2013-02-03 10:40:00,
2013-02-03 05:45:00,20.0,17.0,29.95,NW,314,0.0,0.0,88,0.00,,---,0.00,VWS V14.00,2013-02-03 10:45:00,
2013-02-03 05:50:00,19.9,16.9,29.95,NW,314,0.0,0.0,88,0.00,,---,0.00,VWS V14.00,2013-02-03 10:50:00,
2013-02-03 05:55:00,19.7,16.7,29.95,NW,314,0.0,0.0,88,0.00,,---,0.00,VWS V14.00,2013-02-03 10:55:00,
2013-02-03 06:00:00,19.7,17.0,29.95,NW,314,0.0,0.0,89,0.00,,---,0.00,VWS V14.00,2013-02-03 11:00:00,
2013-02-03 06:05:00,19.7,17.0,29.95,NW,314,0.0,0.0,89,0.00,,---,0.00,VWS V14.00,2013-02-03 11:05:00,
2013-02-03 06:10:00,19.7,17.0,29.94,NW,314,0.0,0.0,89,0.00,,---,0.00,VWS V14.00,2013-02-03 11:10:00,
2013-02-03 06:15:00,19.7,17.0,29.95,NW,314,0.0,0.0,89,0.00,,---,0.00,VWS V14.00,2013-02-03 11:15:00,
2013-02-03 06:20:00,19.7,17.0,29.95,NW,314,0.0,0.0,89,0.00,,---,0.00,VWS V14.00,2013-02-03 11:20:00,
2013-02-03 06:25:00,19.7,17.0,29.95,NW,314,0.0,0.0,89,0.00,,---,0.00,VWS V14.00,2013-02-03 11:25:00,
2013-02-03 06:30:00,19.7,17.0,29.95,NW,314,0.0,0.0,89,0.00,,---,0.00,VWS V14.00,2013-02-03 11:30:00,
2013-02-03 06:35:00,19.5,16.8,29.95,NW,314,0.0,0.0,89,0.00,,---,0.00,VWS V14.00,2013-02-03 11:35:00,
2013-02-03 06:40:00,19.3,16.3,29.96,NW,314,0.0,0.0,88,0.00,,---,0.00,VWS V14.00,2013-02-03 11:40:00,
2013-02-03 06:45:00,19.1,16.4,29.96,NW,314,0.0,0.0,89,0.00,,---,0.00,VWS V14.00,2013-02-03 11:45:00,
2013-02-03 06:50:00,19.0,16.3,29.96,NW,314,0.0,0.0,89,0.00,,---,0.00,VWS V14.00,2013-02-03 11:50:00,
2013-02-03 06:55:00,19.0,16.3,29.96,NW,314,0.0,0.0,89,0.00,,---,0.00,VWS V14.00,2013-02-03 11:55:00,
2013-02-03 07:00:00,18.9,16.2,29.96,NW,314,0.0,0.0,89,0.00,,---,0.00,VWS V14.00,2013-02-03 12:00:00,
2013-02-03 07:05:00,18.8,16.1,29.96,NW,314,0.0,0.0,89,0.00,,---,0.00,VWS V14.00,2013-02-03 12:05:00,
2013-02-03 07:10:00,18.7,16.0,29.96,NW,314,0.0,0.0,89,0.00,,---,0.00,VWS V14.00,2013-02-03 12:10:00,
2013-02-03 07:15:00,18.6,15.9,29.96,NW,314,0.0,0.0,89,0.00,,---,0.00,VWS V14.00,2013-02-03 12:15:00,
2013-02-03 07:20:00,18.5,15.8,29.97,NW,314,0.0,0.0,89,0.00,,---,0.00,VWS V14.00,2013-02-03 12:20:00,
2013-02-03 07:25:00,18.5,15.8,29.97,NW,314,0.0,0.0,89,0.00,,---,0.00,VWS V14.00,2013-02-03 12:25:00,
2013-02-03 07:30:00,18.5,15.8,29.97,NW,314,0.0,0.0,89,0.00,,---,0.00,VWS V14.00,2013-02-03 12:30:00,
2013-02-03 07:35:00,18.5,15.8,29.97,NW,314,0.0,0.0,89,0.00,,---,0.00,VWS V14.00,2013-02-03 12:35:00,
2013-02-03 07:40:00,18.6,15.9,29.97,NW,314,0.0,0.0,89,0.00,,---,0.00,VWS V14.00,2013-02-03 12:40:00,
2013-02-03 07:45:00,18.8,16.4,29.97,NW,314,0.0,0.0,90,0.00,,---,0.00,VWS V14.00,2013-02-03 12:45:00,
2013-02-03 07:50:00,18.9,16.5,29.97,NW,314,0.0,0.0,90,0.00,,---,0.00,VWS V14.00,2013-02-03 12:50:00,
2013-02-03 07:55:00,19.2,16.8,29.97,NW,314,0.0,0.0,90,0.00,,---,0.00,VWS V14.00,2013-02-03 12:55:00,
2013-02-03 08:00:00,19.5,17.0,29.97,NW,314,0.0,0.0,90,0.00,,---,0.00,VWS V14.00,2013-02-03 13:00:00,
2013-02-03 08:05:00,19.8,17.6,29.97,NW,314,0.0,0.0,91,0.00,,---,0.00,VWS V14.00,2013-02-03 13:05:00,
2013-02-03 08:10:00,20.1,17.9,29.97,NW,314,0.0,0.0,91,0.00,,---,0.00,VWS V14.00,2013-02-03 13:10:00,
2013-02-03 08:15:00,20.4,18.2,29.97,NW,314,0.0,0.0,91,0.00,,---,0.00,VWS V14.00,2013-02-03 13:15:00,
2013-02-03 08:20:00,20.7,18.5,29.97,NW,314,0.0,0.0,91,0.00,,---,0.00,VWS V14.00,2013-02-03 13:20:00,
2013-02-03 08:25:00,21.0,18.8,29.97,NW,314,0.0,0.0,91,0.00,,---,0.00,VWS V14.00,2013-02-03 13:25:00,
2013-02-03 08:30:00,21.3,19.1,29.97,NW,314,0.0,0.0,91,0.00,,---,0.00,VWS V14.00,2013-02-03 13:30:00,
2013-02-03 08:35:00,21.6,19.4,29.96,NW,314,0.0,0.0,91,0.00,,---,0.00,VWS V14.00,2013-02-03 13:35:00,
2013-02-03 08:40:00,22.1,19.9,29.96,NW,314,0.0,0.0,91,0.00,,---,0.00,VWS V14.00,2013-02-03 13:40:00,
2013-02-03 08:46:00,22.5,20.3,29.96,NW,314,0.0,4.0,91,0.00,,---,0.00,VWS V14.00,2013-02-03 13:46:00,
2013-02-03 08:51:00,22.8,20.6,29.96,NW,314,0.0,4.0,91,0.00,,---,0.00,VWS V14.00,2013-02-03 13:51:00,
2013-02-03 08:56:00,23.0,20.5,29.96,NW,316,1.0,4.0,90,0.00,,---,0.00,VWS V14.00,2013-02-03 13:56:00,
2013-02-03 09:01:00,23.3,20.8,29.96,NW,323,0.0,2.0,90,0.00,,---,0.00,VWS V14.00,2013-02-03 14:01:00,
2013-02-03 09:06:00,23.5,20.7,29.96,NW,323,0.0,2.0,89,0.00,,---,0.00,VWS V14.00,2013-02-03 14:06:00,
2013-02-03 09:11:00,23.8,21.0,29.95,NE,38,5.0,5.0,89,0.00,,---,0.00,VWS V14.00,2013-02-03 14:11:00,
2013-02-03 09:16:00,24.0,21.0,29.95,ENE,76,3.0,5.0,88,0.00,,---,0.00,VWS V14.00,2013-02-03 14:16:00,
2013-02-03 09:21:00,24.4,21.1,29.95,East,93,4.0,7.0,87,0.00,,---,0.00,VWS V14.00,2013-02-03 14:21:00,
2013-02-03 09:26:00,24.7,20.8,29.95,ESE,102,4.0,7.0,85,0.00,,---,0.00,VWS V14.00,2013-02-03 14:26:00,
2013-02-03 09:31:00,25.0,20.9,29.95,SE,126,2.0,4.0,84,0.00,,---,0.00,VWS V14.00,2013-02-03 14:31:00,
2013-02-03 09:36:00,25.3,20.6,29.95,East,89,2.0,4.0,82,0.00,,---,0.00,VWS V14.00,2013-02-03 14:36:00,
2013-02-03 09:41:00,25.6,20.3,29.95,East,81,0.0,6.0,80,0.00,,---,0.00,VWS V14.00,2013-02-03 14:41:00,
2013-02-03 09:46:00,25.6,20.3,29.94,ENE,73,0.0,6.0,80,0.00,,---,0.00,VWS V14.00,2013-02-03 14:46:00,
2013-02-03 09:51:00,25.9,20.3,29.94,ENE,71,1.0,6.0,79,0.00,,---,0.00,VWS V14.00,2013-02-03 14:51:00,
2013-02-03 09:56:00,26.3,20.4,29.94,East,94,0.0,6.0,78,0.00,,---,0.00,VWS V14.00,2013-02-03 14:56:00,
2013-02-03 10:01:00,26.6,19.8,29.94,East,94,0.0,2.0,75,0.00,,---,0.00,VWS V14.00,2013-02-03 15:01:00,
2013-02-03 10:06:00,26.8,20.3,29.94,ESE,113,1.0,6.0,76,0.00,,---,0.00,VWS V14.00,2013-02-03 15:06:00,
2013-02-03 10:11:00,26.7,19.9,29.94,East,91,0.0,6.0,75,0.00,,---,0.01,VWS V14.00,2013-02-03 15:11:00,
2013-02-03 10:16:00,26.4,19.2,29.94,East,89,2.0,6.0,74,0.00,,---,0.01,VWS V14.00,2013-02-03 15:16:00,
2013-02-03 10:21:00,26.4,19.6,29.94,East,89,1.0,6.0,75,0.00,,---,0.01,VWS V14.00,2013-02-03 15:21:00,
2013-02-03 10:26:00,26.7,19.5,29.93,East,89,2.0,6.0,74,0.00,,---,0.01,VWS V14.00,2013-02-03 15:26:00,
2013-02-03 10:31:00,26.7,18.9,29.93,East,90,0.0,2.0,72,0.00,,---,0.01,VWS V14.00,2013-02-03 15:31:00,
2013-02-03 10:36:00,26.8,19.3,29.93,East,90,0.0,2.0,73,0.00,,---,0.01,VWS V14.00,2013-02-03 15:36:00,
2013-02-03 10:41:00,26.7,18.9,29.93,East,90,2.0,4.0,72,0.00,,---,0.01,VWS V14.00,2013-02-03 15:41:00,
2013-02-03 10:46:00,26.7,18.9,29.93,East,90,0.0,4.0,72,0.00,,---,0.01,VWS V14.00,2013-02-03 15:46:00,
2013-02-03 10:51:00,26.8,19.0,29.93,East,90,1.0,4.0,72,0.00,,---,0.01,VWS V14.00,2013-02-03 15:51:00,
2013-02-03 10:56:00,27.2,19.7,29.92,East,90,0.0,0.0,73,0.00,,---,0.01,VWS V14.00,2013-02-03 15:56:00,
2013-02-03 11:01:00,27.4,18.9,29.92,East,90,0.0,2.0,70,0.00,,---,0.01,VWS V14.00,2013-02-03 16:01:00,
2013-02-03 11:06:00,27.6,19.1,29.92,East,90,0.0,2.0,70,0.00,,---,0.01,VWS V14.00,2013-02-03 16:06:00,
2013-02-03 11:11:00,27.8,19.3,29.92,East,90,2.0,2.0,70,0.00,,---,0.02,VWS V14.00,2013-02-03 16:11:00,
2013-02-03 11:16:00,28.3,20.4,29.92,ESE,105,2.0,5.0,72,0.00,,---,0.02,VWS V14.00,2013-02-03 16:16:00,
2013-02-03 11:21:00,28.8,20.3,29.91,ESE,105,1.0,5.0,70,0.00,,---,0.02,VWS V14.00,2013-02-03 16:21:00,
2013-02-03 11:26:00,29.0,19.4,29.91,ESE,105,1.0,1.0,67,0.00,,---,0.02,VWS V14.00,2013-02-03 16:26:00,
2013-02-03 11:31:00,28.9,19.0,29.91,ESE,105,4.0,4.0,66,0.00,,---,0.02,VWS V14.00,2013-02-03 16:31:00,
2013-02-03 11:36:00,28.8,19.2,29.90,ESE,105,2.0,4.0,67,0.00,,---,0.02,VWS V14.00,2013-02-03 16:36:00,
2013-02-03 11:41:00,28.8,19.6,29.90,ESE,105,0.0,4.0,68,0.00,,---,0.02,VWS V14.00,2013-02-03 16:41:00,
2013-02-03 11:46:00,29.1,19.9,29.90,ESE,105,2.0,4.0,68,0.00,,---,0.02,VWS V14.00,2013-02-03 16:46:00,
2013-02-03 11:51:00,29.6,20.7,29.89,ESE,105,0.0,4.0,69,0.00,,---,0.02,VWS V14.00,2013-02-03 16:51:00,
2013-02-03 11:56:00,29.8,19.8,29.89,ESE,105,0.0,0.0,66,0.00,,---,0.02,VWS V14.00,2013-02-03 16:56:00,
2013-02-03 12:01:00,29.7,19.4,29.88,ESE,105,4.0,4.0,65,0.00,,---,0.02,VWS V14.00,2013-02-03 17:01:00,
2013-02-03 12:06:00,29.1,18.8,29.88,ESE,105,2.0,5.0,65,0.00,,---,0.02,VWS V14.00,2013-02-03 17:06:00,
2013-02-03 12:11:00,28.6,18.7,29.88,ESE,105,2.0,5.0,66,0.00,,---,0.02,VWS V14.00,2013-02-03 17:11:00,
2013-02-03 12:16:00,28.6,19.4,29.87,ESE,105,2.0,5.0,68,0.00,,---,0.03,VWS V14.00,2013-02-03 17:16:00,
2013-02-03 12:21:00,28.7,18.8,29.87,ESE,105,2.0,5.0,66,0.00,,---,0.03,VWS V14.00,2013-02-03 17:21:00,
2013-02-03 12:26:00,28.8,19.2,29.86,ESE,105,4.0,4.0,67,0.00,,---,0.03,VWS V14.00,2013-02-03 17:26:00,
2013-02-03 12:31:00,29.1,19.9,29.86,ESE,105,2.0,5.0,68,0.00,,---,0.03,VWS V14.00,2013-02-03 17:31:00,
2013-02-03 12:36:00,29.2,18.9,29.86,ESE,105,2.0,5.0,65,0.00,,---,0.03,VWS V14.00,2013-02-03 17:36:00,
2013-02-03 12:41:00,29.1,19.2,29.85,ESE,105,2.0,5.0,66,0.00,,---,0.03,VWS V14.00,2013-02-03 17:41:00,
2013-02-03 12:46:00,29.2,20.0,29.85,ESE,105,2.0,5.0,68,0.00,,---,0.03,VWS V14.00,2013-02-03 17:46:00,
2013-02-03 12:51:00,29.5,19.6,29.85,ESE,105,0.0,5.0,66,0.00,,---,0.03,VWS V14.00,2013-02-03 17:51:00,
2013-02-03 12:56:00,29.7,19.4,29.84,ESE,105,0.0,0.0,65,0.00,,---,0.03,VWS V14.00,2013-02-03 17:56:00,
2013-02-03 13:02:00,29.9,19.9,29.84,ESE,116,2.0,5.0,66,0.00,,---,0.03,VWS V14.00,2013-02-03 18:02:00,
2013-02-03 13:07:00,29.9,19.2,29.84,ESE,115,0.0,5.0,64,0.00,,---,0.03,VWS V14.00,2013-02-03 18:07:00,
2013-02-03 13:12:00,29.6,19.3,29.84,North,355,2.0,7.0,65,0.00,,---,0.03,VWS V14.00,2013-02-03 18:12:00,
2013-02-03 13:17:00,29.2,18.9,29.83,North,355,0.0,7.0,65,0.00,,---,0.03,VWS V14.00,2013-02-03 18:17:00,
2013-02-03 13:22:00,29.1,19.2,29.83,North,355,1.0,7.0,66,0.00,,---,0.03,VWS V14.00,2013-02-03 18:22:00,
2013-02-03 13:27:00,29.1,19.2,29.83,North,360,2.0,2.0,66,0.00,,---,0.03,VWS V14.00,2013-02-03 18:27:00,
2013-02-03 13:32:00,29.2,19.3,29.83,North,355,2.0,5.0,66,0.00,,---,0.03,VWS V14.00,2013-02-03 18:32:00,
2013-02-03 13:37:00,29.1,19.2,29.83,NNW,336,1.0,7.0,66,0.00,,---,0.03,VWS V14.00,2013-02-03 18:37:00,
2013-02-03 13:42:00,29.2,19.3,29.82,NNW,336,0.0,7.0,66,0.00,,---,0.03,VWS V14.00,2013-02-03 18:42:00,
2013-02-03 13:47:00,29.4,19.1,29.82,NNW,336,1.0,7.0,65,0.00,,---,0.03,VWS V14.00,2013-02-03 18:47:00,
2013-02-03 13:52:00,29.4,18.7,29.82,NNW,336,2.0,7.0,64,0.00,,---,0.03,VWS V14.00,2013-02-03 18:52:00,
2013-02-03 13:57:00,29.3,18.6,29.82,NNW,336,2.0,4.0,64,0.00,,---,0.03,VWS V14.00,2013-02-03 18:57:00,
2013-02-03 14:02:00,29.2,18.5,29.82,NNW,336,2.0,4.0,64,0.00,,---,0.03,VWS V14.00,2013-02-03 19:02:00,
2013-02-03 14:07:00,29.3,18.3,29.81,NNW,336,2.0,5.0,63,0.00,,---,0.03,VWS V14.00,2013-02-03 19:07:00,
2013-02-03 14:12:00,29.4,18.4,29.81,NNW,336,4.0,6.0,63,0.00,,---,0.03,VWS V14.00,2013-02-03 19:12:00,
2013-02-03 14:17:00,29.6,19.3,29.81,NNW,336,0.0,6.0,65,0.00,,---,0.03,VWS V14.00,2013-02-03 19:17:00,
2013-02-03 14:22:00,29.8,19.1,29.81,West,259,2.0,6.0,64,0.00,,---,0.03,VWS V14.00,2013-02-03 19:22:00,
2013-02-03 14:27:00,30.0,19.0,29.81,WNW,302,2.0,5.0,63,0.00,,---,0.03,VWS V14.00,2013-02-03 19:27:00,
2013-02-03 14:32:00,29.9,19.2,29.81,WNW,302,4.0,5.0,64,0.00,,---,0.03,VWS V14.00,2013-02-03 19:32:00,
2013-02-03 14:37:00,29.7,18.7,29.81,NW,317,4.0,6.0,63,0.00,,---,0.03,VWS V14.00,2013-02-03 19:37:00,
2013-02-03 14:42:00,29.7,19.0,29.81,NW,317,0.0,6.0,64,0.00,,---,0.03,VWS V14.00,2013-02-03 19:42:00,
2013-02-03 14:47:00,29.8,19.1,29.81,NW,317,2.0,6.0,64,0.00,,---,0.03,VWS V14.00,2013-02-03 19:47:00,
2013-02-03 14:52:00,30.0,19.3,29.81,NW,317,0.0,6.0,64,0.00,,---,0.03,VWS V14.00,2013-02-03 19:52:00,
2013-02-03 14:57:00,30.1,19.0,29.80,NW,317,4.0,6.0,63,0.00,,---,0.03,VWS V14.00,2013-02-03 19:57:00,
2013-02-03 15:02:00,30.2,18.8,29.80,NW,317,4.0,6.0,62,0.00,,---,0.03,VWS V14.00,2013-02-03 20:02:00,
2013-02-03 15:07:00,30.3,18.9,29.80,NW,317,4.0,6.0,62,0.00,,---,0.03,VWS V14.00,2013-02-03 20:07:00,
2013-02-03 15:12:00,30.4,19.3,29.80,NNW,328,4.0,8.0,63,0.00,,---,0.03,VWS V14.00,2013-02-03 20:12:00,
2013-02-03 15:17:00,30.3,18.9,29.80,NNW,328,5.0,8.0,62,0.00,,---,0.03,VWS V14.00,2013-02-03 20:17:00,
2013-02-03 15:22:00,30.2,18.8,29.80,NNW,328,9.0,10.0,62,0.00,,---,0.03,VWS V14.00,2013-02-03 20:22:00,
2013-02-03 15:27:00,30.1,18.7,29.81,NNW,328,4.0,5.0,62,0.00,,---,0.03,VWS V14.00,2013-02-03 20:27:00,
2013-02-03 15:32:00,30.2,18.8,29.80,NNW,328,2.0,6.0,62,0.00,,---,0.03,VWS V14.00,2013-02-03 20:32:00,
2013-02-03 15:37:00,30.2,18.8,29.80,NNW,328,5.0,6.0,62,0.00,,---,0.03,VWS V14.00,2013-02-03 20:37:00,
2013-02-03 15:42:00,30.1,18.7,29.80,NNW,333,5.0,6.0,62,0.00,,---,0.03,VWS V14.00,2013-02-03 20:42:00,
2013-02-03 15:47:00,30.0,18.2,29.80,NNW,333,5.0,7.0,61,0.00,,---,0.03,VWS V14.00,2013-02-03 20:47:00,
2013-02-03 15:52:00,30.0,19.0,29.80,NNW,333,5.0,7.0,63,0.00,,---,0.03,VWS V14.00,2013-02-03 20:52:00,
2013-02-03 15:57:00,30.1,19.0,29.80,NW,325,4.0,7.0,63,0.00,,---,0.03,VWS V14.00,2013-02-03 20:57:00,
2013-02-03 16:02:00,30.0,18.6,29.80,NW,318,5.0,7.0,62,0.00,,---,0.03,VWS V14.00,2013-02-03 21:02:00,
2013-02-03 16:07:00,30.1,18.7,29.80,NW,321,2.0,7.0,62,0.00,,---,0.03,VWS V14.00,2013-02-03 21:07:00,
2013-02-03 16:12:00,30.2,18.8,29.80,NW,321,4.0,7.0,62,0.00,,---,0.03,VWS V14.00,2013-02-03 21:12:00,
2013-02-03 16:17:00,30.4,18.6,29.80,NW,321,1.0,8.0,61,0.00,,---,0.03,VWS V14.00,2013-02-03 21:17:00,
2013-02-03 16:22:00,30.6,18.8,29.80,NW,321,4.0,8.0,61,0.00,,---,0.03,VWS V14.00,2013-02-03 21:22:00,
2013-02-03 16:27:00,30.8,18.6,29.80,NW,321,0.0,2.0,60,0.00,,---,0.03,VWS V14.00,2013-02-03 21:27:00,
2013-02-03 16:32:00,30.9,19.0,29.80,NW,322,5.0,6.0,61,0.00,,---,0.03,VWS V14.00,2013-02-03 21:32:00,
2013-02-03 16:37:00,30.9,18.7,29.80,NNW,332,5.0,8.0,60,0.00,,---,0.03,VWS V14.00,2013-02-03 21:37:00,
2013-02-03 16:42:00,30.8,18.6,29.80,North,350,4.0,8.0,60,0.00,,---,0.03,VWS V14.00,2013-02-03 21:42:00,
2013-02-03 16:47:00,30.6,18.8,29.80,North,350,4.0,8.0,61,0.00,,---,0.03,VWS V14.00,2013-02-03 21:47:00,
2013-02-03 16:52:00,30.5,18.7,29.80,North,350,4.0,8.0,61,0.00,,---,0.03,VWS V14.00,2013-02-03 21:52:00,
2013-02-03 16:58:00,30.3,18.9,29.80,North,350,7.0,7.0,62,0.00,,---,0.03,VWS V14.00,2013-02-03 21:58:00,
2013-02-03 17:03:00,30.1,18.7,29.80,North,350,4.0,7.0,62,0.00,,---,0.03,VWS V14.00,2013-02-03 22:03:00,
2013-02-03 17:08:00,29.9,18.1,29.80,NNW,341,4.0,7.0,61,0.00,,---,0.03,VWS V14.00,2013-02-03 22:08:00,
2013-02-03 17:13:00,29.5,17.3,29.80,NNW,333,7.0,7.0,60,0.00,,---,0.03,VWS V14.00,2013-02-03 22:13:00,
2013-02-03 17:18:00,29.3,17.1,29.79,NNW,333,4.0,7.0,60,0.00,,---,0.03,VWS V14.00,2013-02-03 22:18:00,
2013-02-03 17:23:00,29.1,17.0,29.80,NNW,333,5.0,7.0,60,0.00,,---,0.03,VWS V14.00,2013-02-03 22:23:00,
2013-02-03 17:28:00,28.9,17.5,29.80,NNW,333,2.0,4.0,62,0.00,,---,0.03,VWS V14.00,2013-02-03 22:28:00,
2013-02-03 17:33:00,28.8,17.1,29.80,NNW,336,6.0,8.0,61,0.00,,---,0.03,VWS V14.00,2013-02-03 22:33:00,
2013-02-03 17:38:00,28.7,17.3,29.80,NNW,336,5.0,8.0,62,0.00,,---,0.03,VWS V14.00,2013-02-03 22:38:00,
2013-02-03 17:43:00,28.5,17.1,29.80,NNW,336,2.0,8.0,62,0.00,,---,0.03,VWS V14.00,2013-02-03 22:43:00,
2013-02-03 17:48:00,28.4,17.1,29.80,NNW,336,5.0,8.0,62,0.00,,---,0.03,VWS V14.00,2013-02-03 22:48:00,
2013-02-03 17:53:00,28.3,17.0,29.80,NNW,336,4.0,8.0,62,0.00,,---,0.03,VWS V14.00,2013-02-03 22:53:00,
2013-02-03 17:58:00,28.2,16.9,29.80,NNW,336,4.0,4.0,62,0.00,,---,0.03,VWS V14.00,2013-02-03 22:58:00,
2013-02-03 18:03:00,28.2,17.2,29.81,NNW,336,4.0,4.0,63,0.00,,---,0.03,VWS V14.00,2013-02-03 23:03:00,
2013-02-03 18:08:00,28.0,17.0,29.81,NNW,336,4.0,4.0,63,0.00,,---,0.03,VWS V14.00,2013-02-03 23:08:00,
2013-02-03 18:13:00,27.8,16.9,29.81,NNW,336,1.0,4.0,63,0.00,,---,0.03,VWS V14.00,2013-02-03 23:13:00,
2013-02-03 18:18:00,27.6,16.7,29.81,NNW,336,2.0,4.0,63,0.00,,---,0.03,VWS V14.00,2013-02-03 23:18:00,
2013-02-03 18:23:00,27.6,17.0,29.81,NNW,336,1.0,4.0,64,0.00,,---,0.03,VWS V14.00,2013-02-03 23:23:00,
2013-02-03 18:28:00,27.4,17.2,29.81,NNW,336,1.0,1.0,65,0.00,,---,0.03,VWS V14.00,2013-02-03 23:28:00,
2013-02-03 18:33:00,27.3,17.1,29.81,NNW,336,2.0,4.0,65,0.00,,---,0.03,VWS V14.00,2013-02-03 23:33:00,
2013-02-03 18:38:00,27.2,17.0,29.81,NNW,336,1.0,4.0,65,0.00,,---,0.03,VWS V14.00,2013-02-03 23:38:00,
2013-02-03 18:43:00,27.1,16.9,29.81,NNW,336,1.0,4.0,65,0.00,,---,0.03,VWS V14.00,2013-02-03 23:43:00,
2013-02-03 18:48:00,27.0,17.2,29.81,NNW,336,1.0,4.0,66,0.00,,---,0.03,VWS V14.00,2013-02-03 23:48:00,
2013-02-03 18:53:00,26.9,17.1,29.81,NNW,336,1.0,4.0,66,0.00,,---,0.03,VWS V14.00,2013-02-03 23:53:00,
2013-02-03 18:58:00,26.8,17.0,29.81,NNW,336,0.0,2.0,66,0.00,,---,0.03,VWS V14.00,2013-02-03 23:58:00,
2013-02-03 19:03:00,26.7,17.2,29.81,NNW,336,0.0,2.0,67,0.00,,---,0.03,VWS V14.00,2013-02-04 00:03:00,
2013-02-03 19:08:00,26.5,17.0,29.82,NNW,336,0.0,2.0,67,0.00,,---,0.03,VWS V14.00,2013-02-04 00:08:00,
2013-02-03 19:13:00,26.4,16.9,29.82,NNW,336,1.0,4.0,67,0.00,,---,0.03,VWS V14.00,2013-02-04 00:13:00,
2013-02-03 19:18:00,26.3,17.2,29.82,NNW,336,2.0,5.0,68,0.00,,---,0.03,VWS V14.00,2013-02-04 00:18:00,
2013-02-03 19:23:00,26.5,17.0,29.82,NNW,336,1.0,5.0,67,0.00,,---,0.03,VWS V14.00,2013-02-04 00:23:00,
2013-02-03 19:28:00,26.5,17.0,29.82,NNW,336,4.0,4.0,67,0.00,,---,0.03,VWS V14.00,2013-02-04 00:28:00,
2013-02-03 19:33:00,26.5,17.0,29.82,NNW,336,1.0,4.0,67,0.00,,---,0.03,VWS V14.00,2013-02-04 00:33:00,
2013-02-03 19:38:00,26.4,16.9,29.82,NNW,336,1.0,4.0,67,0.00,,---,0.03,VWS V14.00,2013-02-04 00:38:00,
2013-02-03 19:43:00,26.3,17.2,29.82,NNW,336,2.0,4.0,68,0.00,,---,0.03,VWS V14.00,2013-02-04 00:43:00,
2013-02-03 19:48:00,26.3,17.2,29.82,NNW,336,0.0,4.0,68,0.00,,---,0.03,VWS V14.00,2013-02-04 00:48:00,
2013-02-03 19:53:00,26.1,17.0,29.82,NNW,336,0.0,4.0,68,0.00,,---,0.03,VWS V14.00,2013-02-04 00:53:00,
2013-02-03 19:58:00,26.0,17.2,29.82,NNW,336,0.0,0.0,69,0.00,,---,0.03,VWS V14.00,2013-02-04 00:58:00,
2013-02-03 20:03:00,25.8,17.0,29.82,NNW,336,0.0,0.0,69,0.00,,---,0.03,VWS V14.00,2013-02-04 01:03:00,
2013-02-03 20:08:00,25.6,16.9,29.82,NNW,336,0.0,0.0,69,0.00,,---,0.03,VWS V14.00,2013-02-04 01:08:00,
2013-02-03 20:13:00,25.4,17.0,29.82,NNW,336,0.0,0.0,70,0.00,,---,0.03,VWS V14.00,2013-02-04 01:13:00,
2013-02-03 20:18:00,25.2,17.1,29.83,NNW,336,0.0,0.0,71,0.00,,---,0.03,VWS V14.00,2013-02-04 01:18:00,
2013-02-03 20:23:00,25.0,16.9,29.83,NNW,336,0.0,0.0,71,0.00,,---,0.03,VWS V14.00,2013-02-04 01:23:00,
2013-02-03 20:28:00,24.8,17.1,29.83,NNW,336,0.0,0.0,72,0.00,,---,0.03,VWS V14.00,2013-02-04 01:28:00,
2013-02-03 20:33:00,24.6,16.9,29.83,NNW,336,0.0,0.0,72,0.00,,---,0.03,VWS V14.00,2013-02-04 01:33:00,
2013-02-03 20:38:00,24.3,16.9,29.82,NNW,336,0.0,0.0,73,0.00,,---,0.03,VWS V14.00,2013-02-04 01:38:00,
2013-02-03 20:43:00,24.1,17.0,29.82,NNW,336,0.0,0.0,74,0.00,,---,0.03,VWS V14.00,2013-02-04 01:43:00,
2013-02-03 20:48:00,23.9,17.1,29.82,NNW,336,0.0,0.0,75,0.00,,---,0.03,VWS V14.00,2013-02-04 01:48:00,
2013-02-03 20:53:00,23.8,17.4,29.83,NNW,336,0.0,0.0,76,0.00,,---,0.03,VWS V14.00,2013-02-04 01:53:00,
2013-02-03 20:58:00,23.6,17.5,29.83,NNW,336,0.0,0.0,77,0.00,,---,0.03,VWS V14.00,2013-02-04 01:58:00,
2013-02-03 21:03:00,23.6,17.8,29.83,NNW,336,0.0,0.0,78,0.00,,---,0.03,VWS V14.00,2013-02-04 02:03:00,
2013-02-03 21:08:00,23.5,18.0,29.83,NNW,336,0.0,0.0,79,0.00,,---,0.03,VWS V14.00,2013-02-04 02:08:00,
2013-02-03 21:13:00,23.4,17.9,29.83,NNW,336,0.0,0.0,79,0.00,,---,0.03,VWS V14.00,2013-02-04 02:13:00,
2013-02-03 21:18:00,23.3,18.1,29.83,NNW,336,0.0,0.0,80,0.00,,---,0.03,VWS V14.00,2013-02-04 02:18:00,
2013-02-03 21:23:00,23.2,18.0,29.83,NNW,336,0.0,0.0,80,0.00,,---,0.03,VWS V14.00,2013-02-04 02:23:00,
2013-02-03 21:28:00,23.1,17.9,29.82,NNW,336,0.0,0.0,80,0.00,,---,0.03,VWS V14.00,2013-02-04 02:28:00,
2013-02-03 21:33:00,22.9,17.7,29.82,NNW,336,0.0,0.0,80,0.00,,---,0.03,VWS V14.00,2013-02-04 02:33:00,
2013-02-03 21:38:00,22.8,17.3,29.82,NNW,336,0.0,0.0,79,0.00,,---,0.03,VWS V14.00,2013-02-04 02:38:00,
2013-02-03 21:43:00,22.6,17.1,29.82,NNW,336,0.0,0.0,79,0.00,,---,0.03,VWS V14.00,2013-02-04 02:43:00,
2013-02-03 21:48:00,22.6,17.4,29.82,NNW,336,0.0,0.0,80,0.00,,---,0.03,VWS V14.00,2013-02-04 02:48:00,
2013-02-03 21:53:00,22.5,17.3,29.82,NNW,336,0.0,0.0,80,0.00,,---,0.03,VWS V14.00,2013-02-04 02:53:00,
2013-02-03 21:58:00,22.4,17.2,29.82,NNW,336,0.0,0.0,80,0.00,,---,0.03,VWS V14.00,2013-02-04 02:58:00,
2013-02-03 22:03:00,22.5,17.3,29.82,NNW,336,0.0,0.0,80,0.00,,---,0.03,VWS V14.00,2013-02-04 03:03:00,
2013-02-03 22:08:00,22.5,17.6,29.82,NNW,336,0.0,0.0,81,0.00,,---,0.03,VWS V14.00,2013-02-04 03:08:00,
2013-02-03 22:13:00,22.5,17.6,29.82,NNW,336,0.0,0.0,81,0.00,,---,0.03,VWS V14.00,2013-02-04 03:13:00,
2013-02-03 22:18:00,22.5,17.9,29.82,NNW,336,0.0,0.0,82,0.00,,---,0.03,VWS V14.00,2013-02-04 03:18:00,
2013-02-03 22:23:00,22.5,17.9,29.82,NNW,336,0.0,0.0,82,0.00,,---,0.03,VWS V14.00,2013-02-04 03:23:00,
2013-02-03 22:28:00,22.6,17.9,29.82,NNW,336,0.0,0.0,82,0.00,,---,0.03,VWS V14.00,2013-02-04 03:28:00,
2013-02-03 22:33:00,22.5,17.9,29.82,NNW,336,0.0,0.0,82,0.00,,---,0.03,VWS V14.00,2013-02-04 03:33:00,
2013-02-03 22:39:00,22.5,17.9,29.82,NNW,336,0.0,0.0,82,0.00,,---,0.03,VWS V14.00,2013-02-04 03:39:00,
2013-02-03 22:44:00,22.5,17.9,29.82,NNW,336,0.0,0.0,82,0.00,,---,0.03,VWS V14.00,2013-02-04 03:44:00,
2013-02-03 22:49:00,22.5,17.9,29.82,NNW,336,0.0,0.0,82,0.00,,---,0.03,VWS V14.00,2013-02-04 03:49:00,
2013-02-03 22:54:00,22.6,18.2,29.81,NNW,336,0.0,0.0,83,0.00,,---,0.03,VWS V14.00,2013-02-04 03:54:00,
2013-02-03 22:59:00,22.6,18.2,29.81,NNW,336,0.0,0.0,83,0.00,,---,0.03,VWS V14.00,2013-02-04 03:59:00,
2013-02-03 23:04:00,22.7,18.3,29.81,NNW,336,0.0,0.0,83,0.00,,---,0.03,VWS V14.00,2013-02-04 04:04:00,
2013-02-03 23:09:00,22.8,18.4,29.82,NNW,336,0.0,0.0,83,0.00,,---,0.03,VWS V14.00,2013-02-04 04:09:00,
2013-02-03 23:14:00,22.9,18.5,29.81,NNW,336,0.0,0.0,83,0.00,,---,0.03,VWS V14.00,2013-02-04 04:14:00,
2013-02-03 23:19:00,22.9,18.5,29.81,NNW,336,0.0,0.0,83,0.00,,---,0.03,VWS V14.00,2013-02-04 04:19:00,
2013-02-03 23:24:00,22.9,18.5,29.81,NNW,336,0.0,0.0,83,0.00,,---,0.03,VWS V14.00,2013-02-04 04:24:00,
2013-02-03 23:29:00,22.9,18.5,29.81,NNW,336,0.0,0.0,83,0.00,,---,0.03,VWS V14.00,2013-02-04 04:29:00,
2013-02-03 23:34:00,22.9,18.5,29.81,NNW,336,0.0,0.0,83,0.00,,---,0.03,VWS V14.00,2013-02-04 04:34:00,
2013-02-03 23:39:00,22.9,18.5,29.81,NNW,336,0.0,0.0,83,0.00,,---,0.03,VWS V14.00,2013-02-04 04:39:00,
2013-02-03 23:44:00,23.0,18.6,29.81,NNW,336,0.0,0.0,83,0.00,,---,0.03,VWS V14.00,2013-02-04 04:44:00,
2013-02-03 23:49:00,23.0,18.6,29.81,NNW,336,0.0,0.0,83,0.00,,---,0.03,VWS V14.00,2013-02-04 04:49:00,
2013-02-03 23:54:00,23.0,18.6,29.81,NNW,336,0.0,0.0,83,0.00,,---,0.03,VWS V14.00,2013-02-04 04:54:00,
2013-02-03 23:59:00,23.2,18.8,29.81,NNW,336,0.0,0.0,83,0.00,,---,0.00,VWS V14.00,2013-02-04 04:59:00,